STARLINK-36816

Last updated on Tue Mar 24 2026 00:02:05 GMT+0000 (Coordinated Universal Time)

1 67891U 26035N 26082.50003471 -.02015756 00000+0 -17939-1 0 9992 2 67891 97.2852 15.6649 0001563 106.1023 236.8493 15.71470344 5876

Satellite not in orbit